| time (UTC) | temp C | wind direction | speed KPH | gust KPH | rain 1hr cm | rain 24hr cm | rain mn cm | humidity % | barometer mb |
| 20260505070025 | 13 | 101 | 0.0 | 1.6 | 0.00 | 0.00 | 0.00 | 45 | 1006.9 |
| 20260505064553 | 13 | 250 | 0.0 | 0.0 | 0.00 | 0.00 | 0.00 | 45 | 1007.2 |
| 20260505063100 | 14 | 328 | 0.0 | 6.4 | 0.00 | 0.00 | 0.00 | 44 | 1007.3 |
| 20260505061524 | 15 | 90 | 0.0 | 0.0 | 0.00 | 0.00 | 0.00 | 45 | 1007.4 |
| 20260505060058 | 15 | 358 | 0.0 | 1.6 | 0.00 | 0.00 | 0.00 | 43 | 1007.1 |
| 20260505054528 | 15 | 104 | 0.0 | 0.0 | 0.00 | 0.00 | 0.00 | 42 | 1006.9 |
| 20260505053008 | 16 | 124 | 0.0 | 1.6 | 0.00 | 0.00 | 0.00 | 39 | 1006.5 |
| 20260505051540 | 17 | 113 | 0.0 | 1.6 | 0.00 | 0.00 | 0.00 | 39 | 1006.1 |
| 20260505041532 | 18 | 78 | 0.0 | 0.0 | 0.00 | 0.00 | 0.00 | 37 | 1004.3 |
| 20260505040035 | 19 | 105 | 0.0 | 0.0 | 0.00 | 0.00 | 0.00 | 38 | 1004.4 |
| 20260505034545 | 20 | 85 | 0.0 | 0.0 | 0.00 | 0.00 | 0.00 | 38 | 1004.1 |
| 20260505033024 | 20 | 125 | 0.0 | 1.6 | 0.00 | 0.00 | 0.00 | 38 | 1003.9 |
| 20260505031514 | 20 | 95 | 0.0 | 0.0 | 0.00 | 0.00 | 0.00 | 37 | 1003.3 |
| 20260505030052 | 21 | 110 | 0.0 | 1.6 | 0.00 | 0.00 | 0.00 | 40 | 1002.6 |
| 20260505024528 | 22 | 127 | 0.0 | 3.2 | 0.00 | 0.00 | 0.00 | 40 | 1001.9 |
| 20260505023004 | 22 | 97 | 0.0 | 0.0 | 0.00 | 0.00 | 0.00 | 39 | 1001.6 |
| 20260505021546 | 22 | 121 | 0.0 | 1.6 | 0.00 | 0.00 | 0.00 | 45 | 1001.5 |
| 20260505020044 | 22 | 98 | 0.0 | 0.0 | 0.00 | 0.00 | 0.00 | 51 | 1001.2 |
| 20260505014518 | 22 | 93 | 0.0 | 0.0 | 0.00 | 0.00 | 0.00 | 55 | 1000.6 |
| 20260505013055 | 23 | 93 | 0.0 | 0.0 | 0.00 | 0.00 | 0.00 | 52 | 1000.4 |
| 20260505011530 | 23 | 93 | 0.0 | 0.0 | 0.00 | 0.00 | 0.00 | 50 | 1000.2 |
| 20260505010036 | 25 | 93 | 0.0 | 0.0 | 0.00 | 0.00 | 0.00 | 47 | 1000.0 |
| 20260505004512 | 26 | 92 | 0.0 | 0.0 | 0.00 | 0.00 | 0.00 | 44 | 999.9 |
| 20260505003045 | 26 | 93 | 0.0 | 0.0 | 0.00 | 0.00 | 0.00 | 42 | 999.9 |
| 20260505001520 | 26 | 119 | 0.0 | 0.0 | 0.00 | 0.00 | 0.00 | 40 | 1000.1 |
| 20260505000108 | 27 | 115 | 0.0 | 0.0 | 0.00 | 0.00 | 0.00 | 40 | 1000.1 |
| 20260504234526 | 27 | 289 | 0.0 | 0.0 | 0.00 | 0.00 | 0.00 | 38 | 1000.1 |
| 20260504233005 | 28 | 97 | 0.0 | 0.0 | 0.00 | 0.00 | 0.00 | 37 | 1000.1 |
| 20260504231530 | 28 | 101 | 0.0 | 0.0 | 0.00 | 0.00 | 0.00 | 37 | 1000.1 |
| 20260504230013 | 28 | 117 | 0.0 | 0.0 | 0.00 | 0.00 | 0.00 | 34 | 1000.1 |
| 20260504224553 | 29 | 104 | 0.0 | 0.0 | 0.00 | 0.00 | 0.00 | 30 | 1000.0 |
| 20260504223036 | 28 | 108 | 0.0 | 0.0 | 0.00 | 0.00 | 0.00 | 30 | 999.8 |
| 20260504221507 | 28 | 87 | 0.0 | 0.0 | 0.00 | 0.00 | 0.00 | 29 | 999.8 |
| 20260504220049 | 29 | 109 | 0.0 | 1.6 | 0.00 | 0.00 | 0.00 | 29 | 999.9 |
| 20260504214510 | 30 | 92 | 0.0 | 1.6 | 0.00 | 0.00 | 0.00 | 30 | 999.9 |
| 20260504213104 | 30 | 106 | 0.0 | 1.6 | 0.00 | 0.00 | 0.00 | 26 | 1000.1 |
| 20260504211519 | 31 | 112 | 0.0 | 0.0 | 0.00 | 0.00 | 0.00 | 26 | 1000.2 |
| 20260504210018 | 30 | 104 | 0.0 | 0.0 | 0.00 | 0.00 | 0.00 | 26 | 1000.3 |
| 20260504204547 | 29 | 111 | 0.0 | 1.6 | 0.00 | 0.00 | 0.00 | 29 | 1000.5 |
| 20260504203011 | 29 | 341 | 0.0 | 0.0 | 0.00 | 0.00 | 0.00 | 30 | 1000.7 |
| 20260504201543 | 29 | 104 | 0.0 | 4.8 | 0.00 | 0.00 | 0.00 | 28 | 1000.7 |
| 20260504200009 | 29 | 110 | 0.0 | 1.6 | 0.00 | 0.00 | 0.00 | 28 | 1000.8 |
| 20260504194546 | 29 | 82 | 0.0 | 3.2 | 0.00 | 0.00 | 0.00 | 27 | 1001.1 |
| 20260504193024 | 30 | 86 | 0.0 | 0.0 | 0.00 | 0.00 | 0.00 | 30 | 1001.0 |
| 20260504191555 | 30 | 109 | 0.0 | 0.0 | 0.00 | 0.00 | 0.00 | 30 | 1001.0 |
| 20260504191505 | 30 | 109 | 0.0 | 0.0 | 0.00 | 0.00 | 0.00 | 29 | 1001.0 |
| 20260504190042 | 30 | 95 | 0.0 | 1.6 | 0.00 | 0.00 | 0.00 | 29 | 1001.1 |
| 20260504184507 | 30 | 301 | 0.0 | 0.0 | 0.00 | 0.00 | 0.00 | 28 | 1001.3 |
| 20260504183057 | 30 | 120 | 0.0 | 0.0 | 0.00 | 0.00 | 0.00 | 29 | 1001.3 |
| 20260504181516 | 29 | 87 | 0.0 | 0.0 | 0.00 | 0.00 | 0.00 | 31 | 1001.3 |
| 20260504180054 | 28 | 84 | 0.0 | 1.6 | 0.00 | 0.00 | 0.00 | 33 | 1001.4 |
| 20260504174531 | 28 | 104 | 0.0 | 1.6 | 0.00 | 0.00 | 0.00 | 33 | 1001.5 |
| 20260504173059 | 27 | 101 | 0.0 | 1.6 | 0.00 | 0.00 | 0.00 | 37 | 1001.4 |
| 20260504173007 | 27 | 101 | 0.0 | 1.6 | 0.00 | 0.00 | 0.00 | 38 | 1001.5 |
| 20260504171541 | 27 | 101 | 0.0 | 0.0 | 0.00 | 0.00 | 0.00 | 37 | 1001.6 |
| 20260504081529 | 12 | 115 | 0.0 | 0.0 | 0.00 | 0.00 | 0.00 | 80 | 1003.4 |